When you browse on this site, cookies collect data to enhance your experience and personalize the content and advertising you see.
Visit our Privacy Policy to learn more. By continuing to use the site, you agree to this use of cookies and data.
  • en France
  • Liste des pays
  • À 7 jours
  • Température de l'eau
  • Carte satellitaire
  • Carte météo
  • Widgets météo
  • user-avatar
    Se connecter

    Météo par heure à Elbasan

    Ce jour, 17 Juin, Lundi

    Heure Température Précipitation Vent Pression Humidité
    00:00 +21°C° 0.1 mm 0 m/s 733 mmHg 81%
    01:00 +23°C° 0 mm 1 m/s 733 mmHg 83%
    02:00 +22°C° 0.1 mm 1 m/s 733 mmHg 83%
    03:00 +22°C° 0.1 mm 1 m/s 733 mmHg 83%
    04:00 +22°C° 0.1 mm 1 m/s 733 mmHg 83%
    05:00 +23°C° 0 mm 1 m/s 733 mmHg 78%
    06:00 +23°C° 0 mm 0 m/s 733 mmHg 73%
    07:00 +25°C° 0 mm 0 m/s 734 mmHg 67%
    08:00 +28°C° 0.4 mm 1 m/s 733 mmHg 63%
    09:00 +29°C° 0.4 mm 1 m/s 733 mmHg 59%
    10:00 +30°C° 0.4 mm 1 m/s 733 mmHg 55%
    11:00 +30°C° 0.5 mm 1 m/s 733 mmHg 54%
    12:00 +30°C° 0.5 mm 1 m/s 734 mmHg 53%
    13:00 +31°C° 0.5 mm 2 m/s 734 mmHg 52%
    14:00 +30°C° 0.7 mm 2 m/s 734 mmHg 57%
    15:00 +29°C° 0.7 mm 2 m/s 733 mmHg 61%
    16:00 +28°C° 0.7 mm 2 m/s 733 mmHg 65%
    17:00 +27°C° 0.4 mm 2 m/s 733 mmHg 69%
    18:00 +25°C° 0.4 mm 1 m/s 733 mmHg 74%
    19:00 +24°C° 0.4 mm 1 m/s 733 mmHg 78%
    20:00 +23°C° 0.1 mm 1 m/s 734 mmHg 78%
    21:00 +23°C° 0.1 mm 1 m/s 734 mmHg 77%
    22:00 +22°C° 0.1 mm 1 m/s 734 mmHg 77%
    23:00 +22°C° 0 mm 1 m/s 734 mmHg 76%

    Demain, 18 Juin, Mardi

    Heure Température Précipitation Vent Pression Humidité
    00:00 +22°C° 0 mm 1 m/s 734 mmHg 75%
    01:00 +21°C° 0 mm 1 m/s 734 mmHg 74%
    02:00 +21°C° 0 mm 1 m/s 734 mmHg 74%
    03:00 +21°C° 0 mm 1 m/s 734 mmHg 74%
    04:00 +21°C° 0 mm 1 m/s 734 mmHg 74%
    05:00 +22°C° 0 mm 1 m/s 734 mmHg 71%
    06:00 +24°C° 0 mm 1 m/s 734 mmHg 67%
    07:00 +25°C° 0 mm 1 m/s 734 mmHg 64%
    08:00 +26°C° 0 mm 1 m/s 735 mmHg 60%
    09:00 +28°C° 0 mm 1 m/s 735 mmHg 55%
    10:00 +29°C° 0 mm 1 m/s 735 mmHg 51%
    11:00 +30°C° 0.3 mm 1 m/s 734 mmHg 51%
    12:00 +30°C° 0.3 mm 2 m/s 734 mmHg 51%
    13:00 +30°C° 0.3 mm 3 m/s 734 mmHg 51%
    14:00 +29°C° 1.4 mm 2 m/s 734 mmHg 57%
    15:00 +29°C° 1.4 mm 2 m/s 733 mmHg 62%
    16:00 +28°C° 1.4 mm 2 m/s 733 mmHg 68%
    17:00 +26°C° 0.3 mm 1 m/s 733 mmHg 72%
    18:00 +25°C° 0.3 mm 1 m/s 733 mmHg 76%
    19:00 +22°C° 0.3 mm 0 m/s 733 mmHg 80%
    20:00 +21°C° 0.1 mm 0 m/s 734 mmHg 82%
    21:00 +21°C° 0.1 mm 0 m/s 734 mmHg 83%
    22:00 +20°C° 0.1 mm 0 m/s 734 mmHg 84%
    23:00 +19°C° 0 mm 0 m/s 734 mmHg 84%

    Après-demain, 19 Juin, Mercredi

    Heure Température Précipitation Vent Pression Humidité
    00:00 +21°C° 0 mm 1 m/s 734 mmHg 84%
    01:00 +21°C° 0 mm 1 m/s 733 mmHg 83%
    02:00 +21°C° 0 mm 1 m/s 733 mmHg 83%
    03:00 +20°C° 0 mm 1 m/s 733 mmHg 82%
    04:00 +20°C° 0 mm 1 m/s 733 mmHg 81%
    05:00 +20°C° 0 mm 0 m/s 733 mmHg 77%
    06:00 +21°C° 0 mm 0 m/s 733 mmHg 73%
    07:00 +23°C° 0 mm 0 m/s 733 mmHg 69%
    08:00 +26°C° 0.1 mm 1 m/s 733 mmHg 65%
    09:00 +28°C° 0.1 mm 1 m/s 734 mmHg 61%
    10:00 +29°C° 0.1 mm 1 m/s 734 mmHg 57%
    11:00 +29°C° 0.5 mm 2 m/s 733 mmHg 57%
    12:00 +29°C° 0.5 mm 3 m/s 733 mmHg 57%
    13:00 +30°C° 0.5 mm 3 m/s 733 mmHg 56%
    14:00 +29°C° 0.5 mm 3 m/s 733 mmHg 58%
    15:00 +29°C° 0.5 mm 3 m/s 733 mmHg 59%
    16:00 +28°C° 0.5 mm 3 m/s 732 mmHg 60%
    17:00 +27°C° 0 mm 2 m/s 732 mmHg 67%
    18:00 +25°C° 0 mm 1 m/s 732 mmHg 74%
    19:00 +24°C° 0 mm 1 m/s 732 mmHg 81%
    20:00 +23°C° 0 mm 1 m/s 732 mmHg 84%
    21:00 +22°C° 0 mm 1 m/s 733 mmHg 86%
    22:00 +19°C° 0 mm 0 m/s 733 mmHg 88%
    23:00 +19°C° 0 mm 0 m/s 733 mmHg 89%

    20 Juin, Jeudi

    Heure Température Précipitation Vent Pression Humidité
    00:00 +19°C° 0 mm 0 m/s 733 mmHg 89%
    01:00 +18°C° 0 mm 0 m/s 732 mmHg 89%
    02:00 +18°C° 0 mm 0 m/s 732 mmHg 88%
    03:00 +18°C° 0 mm 0 m/s 732 mmHg 88%
    04:00 +20°C° 0 mm 1 m/s 732 mmHg 88%
    05:00 +19°C° 0 mm 0 m/s 733 mmHg 82%
    06:00 +21°C° 0 mm 0 m/s 733 mmHg 76%
    07:00 +23°C° 0 mm 0 m/s 733 mmHg 71%
    08:00 +26°C° 0 mm 1 m/s 733 mmHg 67%
    09:00 +27°C° 0 mm 1 m/s 733 mmHg 62%
    10:00 +28°C° 0 mm 2 m/s 733 mmHg 58%
    11:00 +29°C° 0.1 mm 2 m/s 733 mmHg 57%
    12:00 +29°C° 0.1 mm 3 m/s 733 mmHg 57%
    13:00 +29°C° 0.1 mm 3 m/s 733 mmHg 57%
    14:00 +29°C° 0.2 mm 3 m/s 733 mmHg 59%
    15:00 +29°C° 0.2 mm 3 m/s 732 mmHg 61%
    16:00 +28°C° 0.2 mm 3 m/s 732 mmHg 63%
    17:00 +26°C° 0.2 mm 2 m/s 732 mmHg 70%
    18:00 +25°C° 0.2 mm 1 m/s 733 mmHg 76%
    19:00 +23°C° 0.2 mm 1 m/s 733 mmHg 83%
    20:00 +23°C° 0.1 mm 1 m/s 733 mmHg 83%
    21:00 +22°C° 0.1 mm 1 m/s 733 mmHg 84%
    22:00 +22°C° 0.1 mm 1 m/s 733 mmHg 85%
    23:00 +20°C° 0 mm 0 m/s 733 mmHg 84%

    21 Juin, Vendredi

    Heure Température Précipitation Vent Pression Humidité
    00:00 +19°C° 0 mm 0 m/s 733 mmHg 84%
    01:00 +19°C° 0 mm 0 m/s 733 mmHg 84%
    02:00 +19°C° 0 mm 0 m/s 733 mmHg 84%
    03:00 +18°C° 0 mm 0 m/s 733 mmHg 85%
    04:00 +18°C° 0 mm 0 m/s 733 mmHg 86%
    05:00 +20°C° 0 mm 0 m/s 733 mmHg 80%
    06:00 +22°C° 0 mm 0 m/s 734 mmHg 75%
    07:00 +23°C° 0 mm 0 m/s 734 mmHg 69%
    08:00 +27°C° 0 mm 1 m/s 734 mmHg 65%
    09:00 +28°C° 0 mm 1 m/s 734 mmHg 60%
    10:00 +30°C° 0 mm 1 m/s 734 mmHg 56%
    11:00 +30°C° 0.4 mm 2 m/s 734 mmHg 55%
    12:00 +30°C° 0.4 mm 2 m/s 734 mmHg 55%
    13:00 +31°C° 0.4 mm 2 m/s 734 mmHg 55%
    14:00 +30°C° 0.9 mm 2 m/s 734 mmHg 59%
    15:00 +29°C° 0.9 mm 2 m/s 733 mmHg 62%
    16:00 +29°C° 0.9 mm 2 m/s 733 mmHg 65%
    17:00 +27°C° 0.5 mm 2 m/s 733 mmHg 71%
    18:00 +26°C° 0.5 mm 1 m/s 733 mmHg 77%
    19:00 +23°C° 0.5 mm 0 m/s 733 mmHg 82%
    20:00 +22°C° 0 mm 0 m/s 734 mmHg 83%
    21:00 +23°C° 0 mm 1 m/s 734 mmHg 84%
    22:00 +23°C° 0 mm 1 m/s 734 mmHg 85%
    23:00 +23°C° 0 mm 1 m/s 734 mmHg 84%

    22 Juin, Samedi

    Heure Température Précipitation Vent Pression Humidité
    00:00 +22°C° 0 mm 1 m/s 734 mmHg 83%
    01:00 +22°C° 0 mm 1 m/s 734 mmHg 82%
    02:00 +22°C° 0 mm 1 m/s 734 mmHg 81%
    03:00 +22°C° 0 mm 1 m/s 734 mmHg 80%
    04:00 +22°C° 0 mm 1 m/s 734 mmHg 79%
    05:00 +24°C° 0 mm 1 m/s 734 mmHg 75%
    06:00 +25°C° 0 mm 1 m/s 735 mmHg 70%
    07:00 +25°C° 0 mm 0 m/s 735 mmHg 66%
    08:00 +28°C° 0 mm 1 m/s 735 mmHg 61%
    09:00 +30°C° 0 mm 1 m/s 735 mmHg 56%
    10:00 +31°C° 0 mm 1 m/s 735 mmHg 52%
    11:00 +32°C° 0 mm 2 m/s 735 mmHg 50%
    12:00 +32°C° 0 mm 2 m/s 735 mmHg 48%
    13:00 +34°C° 0 mm 2 m/s 735 mmHg 46%
    14:00 +34°C° 0 mm 2 m/s 735 mmHg 46%
    15:00 +33°C° 0 mm 1 m/s 735 mmHg 46%
    16:00 +33°C° 0 mm 1 m/s 734 mmHg 45%
    17:00 +31°C° 0 mm 1 m/s 734 mmHg 54%
    18:00 +29°C° 0 mm 1 m/s 734 mmHg 62%
    19:00 +27°C° 0 mm 1 m/s 735 mmHg 70%
    20:00 +26°C° 0 mm 1 m/s 735 mmHg 72%
    21:00 +25°C° 0 mm 1 m/s 735 mmHg 73%
    22:00 +25°C° 0 mm 1 m/s 735 mmHg 75%
    23:00 +25°C° 0 mm 1 m/s 735 mmHg 74%
    Voir plus